Hourly Data Report for May 14, 2021

CARIBOU POINT (AUT)
NOVA SCOTIA
Current Station Operator: ECCC - MSC

45°46'00.000" N
62°41'00.000" W
2.40 m
8200774
71415
WBK

Download Data

Hourly Data (May 2021)
Hourly Data Report for May 14, 2021
TIME
LST
Temp Definition
°C
Dew Point Definition
°C
Rel Hum Definition
%
Precip. Amount Definition
mm

Wind Dir Definition
10's deg

Wind Spd Definition
km/h
Visibility Definition
km
Stn Press Definition
kPa
Hmdx Definition


Wind Chill Definition


Weather Definition


00:00 6.6 2.6 76 0.0 10 5   101.36     LegendNANA
01:00 6.8 2.5 74 0.0 8 10   101.34     LegendNANA
02:00 6.1 2.2 76 0.0 0 1   101.34     LegendNANA
03:00 5.7 1.3 73 0.0 26 6   101.34     LegendNANA
04:00 5.4 3.9 90 0.0 23 13   101.32     LegendNANA
05:00 6.4 4.4 87 0.0 27 10   101.34     LegendNANA
06:00 7.0 4.7 86 0.0 27 8   101.40     LegendNANA
07:00 9.0 5.5 78 0.0 28 12   101.42     LegendNANA
08:00 8.6 5.9 83 0.0 31 15   101.46     LegendNANA
09:00 9.3 6.3 82 0.0 32 18   101.46     LegendNANA
10:00 9.4 6.4 81 0.0 31 17   101.47     LegendNANA
11:00 10.1 7.3 83 0.0 29 20   101.49     LegendNANA
12:00 11.2 7.5 78 0.0 29 22   101.48     LegendNANA
13:00 10.9 7.5 80 0.0 29 22   101.49     LegendNANA
14:00 10.5 6.6 76 0.0 32 29   101.53     LegendNANA
15:00 11.3 6.7 73 0.0 31 17   101.55     LegendNANA
16:00 11.7 7.0 73 0.0 29 16   101.57     LegendNANA
17:00 11.2 5.5 68 0.0 31 24   101.61     LegendNANA
18:00 10.4 5.5 71 0.0 33 13   101.68     LegendNANA
19:00 8.7 5.7 81 0.0 8 11   101.76     LegendNANA
20:00 7.7 5.8 88 0.0 14 11   101.84     LegendNANA
21:00 7.0 5.0 87 0.0 17 7   101.91     LegendNANA
22:00 7.1 5.3 88 0.0 17 9   101.94     LegendNANA
23:00 7.2 5.2 87 0.0 10 8   101.95     LegendNANA

Notes on Data Quality.

Legend

  • E = Estimated
  • M = Missing
  • NA = Not Available*
  • [empty] = Indicates an unobserved value
Date modified: